Regional Weather Roundup
Issued by NWS

Home | Current Version | Previous Version | Graphics & Text | Print | Product List | Glossary On
Versions: 1 2 3 4 5 6 7 8 9 10 11 12 13 14 15 16 17 18 19 20 21 22 23 24 25 26 27 28 29 30 31 32 33 34 35 36 37 38 39 40 41 42 43 44 45 46 47 48 49 50
000
ASUS43 KDMX 041807
RWRIA

WEATHER ROUNDUP FOR IOWA
NATIONAL WEATHER SERVICE DES MOINES IA
100 PM CDT MON MAY 04 2015

NOTE: "FAIR" INDICATES FEW OR NO CLOUDS BELOW 12,000 FEET WITH NO
SIGNIFICANT WEATHER AND/OR OBSTRUCTIONS TO VISIBILITY.

* - THESE STATIONS ARE NOT NWS STATIONS...THUS NOT UNDER NWS
QUALITY CONTROL.  THEY ALSO DO NOT REPORT WEATHER SUCH
AS PRECIPITATION OR FOG.

IAZ001>003-012>014-020>022-031>034-043>046-041900-
   NORTHWEST IOWA

CITY           SKY/WX    TMP DP  RH WIND       PRES   REMARKS
CARROLL *      PTSUNNY   68  46  45 NE18      30.12S
CHEROKEE *     PTSUNNY   67  36  31 E17G24    30.14S
DENISON *      SUNNY     66  45  45 E17G24    30.09F
LE MARS *      SUNNY     70  34  26 NE16G24   30.14S
ORANGE CITY *  SUNNY     66  34  30 E13G21    30.14F
SHELDON *      SUNNY     70  37  30 E15G23    30.14S
SIOUX CITY     PTSUNNY   70  37  29 E18G25    30.11F
6HR MIN TEMP:  56; 6HR MAX TEMP:  71;

SPENCER        PTSUNNY   68  35  29 NE18G29   30.15F
6HR MIN TEMP:  49; 6HR MAX TEMP:  69;

STORM LAKE *   SUNNY     66  43  42 NE21G29   30.14S
$$

IAZ055>058-069>071-079>083-090>094-041900-
   SOUTHWEST IOWA

CITY           SKY/WX    TMP DP  RH WIND       PRES   REMARKS
ATLANTIC *     MOSUNNY   66  59  77 E12       30.09F
AUDUBON *      SUNNY     68  57  68 E13G18    30.11F
CLARINDA *     SUNNY     64  61  88 N12       30.07F
COUNCIL BLFS * SUNNY     63  61  94 NE15G22   30.05F
CRESTON *      PTSUNNY   64  61  88 NE8       30.09F
HARLAN  *      SUNNY     68  55  64 E16       30.12F
LAMONI         CLOUDY    70  61  73 NW13      30.07R
6HR MIN TEMP:  62; 6HR MAX TEMP:  72; 6HR PCP: TRACE;

RED OAK *      MOSUNNY   61  61 100 NE9       30.05F
SHENANDOAH *   MOSUNNY   64  61  88 NE17      30.05F
$$

IAZ047>049-059>061-072>074-084-041900-
   CENTRAL IOWA

CITY           SKY/WX    TMP DP  RH WIND       PRES   REMARKS
AMES           CLOUDY    68  58  70 NE10      30.10S
6HR MIN TEMP:  59; 6HR MAX TEMP:  68;

ANKENY *       CLOUDY    68  59  73 E10       30.09R
CHARITON *     SUNNY     72  61  68 NW7       30.08R
DES MOINES     CLOUDY    70  58  65 NE9       30.10R
6HR MIN TEMP:  62; 6HR MAX TEMP:  71;

GRINNELL*      PTSUNNY   72  59  64 NE16      30.09F
KNOXVILLE *    PTSUNNY   72  61  68 N7        30.07R
MARSHALLTOWN   CLOUDY    66  60  81 NE15      30.09F
6HR MIN TEMP:  59; 6HR MAX TEMP:  67;

PELLA *        PTSUNNY   74  64  71 CALM      30.08R
PERRY *          N/A     70  57  64 E9        30.11R
$$

IAZ004>006-015-016-023>025-035-036-041900-
   NORTH CENTRAL IOWA

CITY           SKY/WX    TMP DP  RH WIND       PRES   REMARKS
ALGONA *       SUNNY     68  37  32 NE16G25   30.15F
CLARION *      SUNNY     66  45  45 E20G25    30.14S
ESTHERVILLE    PTSUNNY   68  32  26 NE17G25   30.15F
6HR MIN TEMP:  49; 6HR MAX TEMP:  68;

FORT DODGE *   PTSUNNY   66  46  48 NE15G23   30.14S
MASON CITY     MOSUNNY   68  42  38 NE20      30.17S
6HR MIN TEMP:  53; 6HR MAX TEMP:  69;

FOREST CITY *  SUNNY     64  36  34 NE15G22   30.16F
IOWA FALLS *     N/A     68  52  56 NE17      30.13F
$$

IAZ007>011-017>019-026>030-037>042-050>054-066-041900-
   NORTHEAST IOWA

CITY           SKY/WX    TMP DP  RH WIND       PRES   REMARKS
CEDAR RAPIDS   CLOUDY    68  61  78 NE10      30.10S
6HR MIN TEMP:  59; 6HR MAX TEMP:  69;

CHARLES CITY * SUNNY     68  45  42 NE16      30.15F
CLINTON *      PTSUNNY   70  61  73 E5        30.14S
DECORAH *      SUNNY     66  43  42 NE9G16    30.14F
DUBUQUE        PTSUNNY   70  57  63 MISG      30.12S
6HR MIN TEMP:  58; 6HR MAX TEMP:  70;

MONTICELLO *   PTSUNNY   70  63  78 E8        30.11F
OELWEIN *      PTSUNNY   68  57  68 NE12      30.13S
WATERLOO       CLOUDY    68  56  65 E14       30.12S
6HR MIN TEMP:  58; 6HR MAX TEMP:  68;

$$

IAZ064-065-067-068-078-041900-
   EAST CENTRAL IOWA

CITY           SKY/WX    TMP DP  RH WIND       PRES   REMARKS
DAVENPORT      PTSUNNY   69  61  75 NE9       30.12S
6HR MIN TEMP:  60; 6HR MAX TEMP:  71;

IOWA CITY      CLOUDY    71  62  73 NE8       30.10F
6HR MIN TEMP:  59; 6HR MAX TEMP:  72;

MT. PLEASANT * MOSUNNY   79  57  47 S6        30.06F HX  80
MUSCATINE *    PTSUNNY   75  63  64 NE7       30.08F
QUAD CITIES    CLOUDY    73  61  65 NE9       30.09S
6HR MIN TEMP:  60; 6HR MAX TEMP:  75;

$$

IAZ062-063-075>077-085>089-095>099-041900-
   SOUTHEAST IOWA

CITY           SKY/WX    TMP DP  RH WIND       PRES   REMARKS
BURLINGTON     MOSUNNY   76  60  57 S6        30.07S
6HR MIN TEMP:  61; 6HR MAX TEMP:  76; 6HR PCP: TRACE;

FAIRFIELD *    SUNNY     79  59  50 S8        30.06F HX  80
FORT MADISON * MOSUNNY   75  59  57 S8        30.08S
KEOKUK *       PTSUNNY   77  63  61 VRB5      30.06F
OSKALOOSA *    PTSUNNY   77  58  53 E7        30.05F
CENTERVILLE *  SUNNY     75  64  69 W5        30.07S
OTTUMWA        MOSUNNY   77  57  50 CALM      30.05S
6HR MIN TEMP:  61; 6HR MAX TEMP:  79;

WASHINGTON *   PTSUNNY   75  68  78 NE9       30.07S
$$

ABBREVIATIONS USED IN REMARKS
   TC - TEMPERATURES IN CELSIUS
  WCI - WIND CHILL INDEX
   HX - HEAT INDEX
  VSB - VISIBILITY
$$




USA.gov is the U.S. government's official web portal to all federal, state and local government web resources and services.